Regional Weather Roundup
Issued by NWS Cleveland, OH

Home | Current Version | Previous Version | Graphics & Text | Print | Product List | Glossary On
Versions: 1 2 3 4 5 6 7 8 9 10 11 12 13 14 15 16 17 18 19 20 21 22 23 24 25 26 27 28 29 30 31 32 33 34 35 36 37 38 39 40 41 42 43 44 45 46 47 48 49 50
000
ASUS41 KCLE 302212
RWRCLE
OHIO REGIONAL WEATHER ROUNDUP
NATIONAL WEATHER SERVICE WILMINGTON, OH
600 PM EDT MON MAY 30 2016

NOTE: "FAIR" INDICATES FEW OR NO CLOUDS BELOW 12,000 FEET WITH NO
SIGNIFICANT WEATHER AND/OR OBSTRUCTIONS TO VISIBILITY.

OHZ001>008-015>018-024>027-034-035-043-044-302300-
   NORTHWEST OHIO

CITY           SKY/WX    TMP DP  RH WIND       PRES   REMARKS
DEFIANCE       FAIR      86  52  30 NW12G18   29.96F
FINDLAY        FAIR      87  50  27 NW10      29.96F
TOLEDO EXPRESS FAIR      86  48  26 VRB3      29.95F
TOLEDO EXEC    FAIR      84  49  29 NW10      29.96S
LIMA           FAIR      85  52  32 NW9       29.98F
$$

OHZ009>014-019>023-028>033-038-089-302300-
   NORTHEAST OHIO

CITY           SKY/WX    TMP DP  RH WIND       PRES   REMARKS
CLE-HOPKINS    FAIR      82  53  36 N7        29.99F
CLE-LAKEFRONT  FAIR      79  56  45 NE3       29.96F
CUY CO. ARPT   MOSUNNY   81  55  41 NW9       29.99F
LORAIN-ELYRIA  FAIR      81  53  37 N6        29.98F
ASHTABULA      FAIR      78  54  43 VRB5      29.99F
AKRON-CANTON   FAIR      82  56  40 N7        29.99S
WOOSTER        FAIR      81  58  45 E6        29.99S
MANSFIELD      FAIR      82  55  39 W6        29.99F
YOUNGSTOWN     FAIR      81  53  37 N13       29.99S
$$

OHZ042-051>053-060>062-070>072-077>081-302300-
  SOUTHWEST OHIO

CITY           SKY/WX    TMP DP  RH WIND       PRES   REMARKS
CINC-COVINGTON FAIR      86  54  33 NW8       29.99F
CINC-LUNKEN    FAIR      81  61  50 E3        29.98F
HAMILTON       FAIR      86  53  32 CALM      29.99F
DAYTON         FAIR      85  55  35 NW9       30.00F
WRIGHT-PAT AFB FAIR      85  54  35 N7        29.98F
DAYTON GENERAL FAIR      85  51  31 NW8       29.99F
WILMINGTON     FAIR      84  55  36 N7        29.99F
$$

OHZ036-037-039>041-045>050-054>059-063>069-073>076-082>088-302300-
  CENTRAL AND SOUTHEAST OHIO

CITY           SKY/WX    TMP DP  RH WIND       PRES   REMARKS
COLUMBUS       FAIR      83  54  36 NW10      29.97S
OSU AIRPORT    FAIR      83  54  36 NW7       29.98F
BOLTON FIELD   MOSUNNY  N/A N/A N/A NW6       29.98F
RICKENBACK AFB PTSUNNY   84  55  36 NW9       29.97S
NEWARK         FAIR      86  54  33 NW7       29.97F
MARION         FAIR      84  50  30 NW9       29.98F
LANCASTER      FAIR      85  56  37 NW7       29.98F
ZANESVILLE     FAIR      85  56  37 W8        29.98S
NEW PHILLY     PTSUNNY   86  54  33 N7        29.98S
$$



USA.gov is the U.S. government's official web portal to all federal, state and local government web resources and services.